WMT4685 LATI-LIPY

Flight info

Callsign WMT4685
Flight time 1h 24m
Altitude 36000
Route DIRES DCT PAPIZ DCT PISIP DCT VIE DCT RUPAX DCT ERPOG DCT ARSOB L612 MASEG
Aircraft A321/M-SDE3FGHIRWY/LB1

Departure

Time 2026-04-21 07:16
Airport Tirana International Airport Mother Teresa (LATI)

Arrival

Time 2026-04-21 08:40
Airport Marche Airport (LIPY)
Time Latitude Longitude Altitude Speed Heading
2026-04-21 06:44 41.41950 19.71520 117 ft 0 kts 264°
2026-04-21 07:06 41.41951 19.71531 117 ft 2 kts 264°
2026-04-21 07:07 41.41951 19.71551 117 ft 2 kts 285°
2026-04-21 07:07 41.41945 19.71569 117 ft 2 kts 308°
2026-04-21 07:07 41.41934 19.71583 117 ft 2 kts 332°
2026-04-21 07:07 41.41923 19.71588 117 ft 0 kts 351°
2026-04-21 07:08 41.41916 19.71589 117 ft 1 kts 354°
2026-04-21 07:08 41.41915 19.71589 117 ft 0 kts 354°
2026-04-21 07:11 41.41918 19.71589 117 ft 1 kts 354°
2026-04-21 07:11 41.41937 19.71586 117 ft 7 kts 354°
2026-04-21 07:12 41.42034 19.71572 116 ft 17 kts 355°
2026-04-21 07:12 41.42157 19.71556 115 ft 17 kts 355°
2026-04-21 07:12 41.42284 19.71541 115 ft 18 kts 354°
2026-04-21 07:12 41.42409 19.71525 114 ft 18 kts 355°
2026-04-21 07:13 41.42538 19.71510 113 ft 18 kts 355°
2026-04-21 07:13 41.42612 19.71500 113 ft 8 kts 355°
2026-04-21 07:13 41.42647 19.71501 113 ft 3 kts 31°
2026-04-21 07:13 41.42665 19.71538 113 ft 5 kts 75°
2026-04-21 07:14 41.42670 19.71594 113 ft 6 kts 85°
2026-04-21 07:14 41.42675 19.71660 113 ft 7 kts 85°
2026-04-21 07:14 41.42679 19.71733 113 ft 8 kts 85°
2026-04-21 07:14 41.42685 19.71814 113 ft 9 kts 85°
2026-04-21 07:15 41.42668 19.71892 113 ft 9 kts 153°
2026-04-21 07:15 41.42599 19.71908 114 ft 10 kts 174°
2026-04-21 07:15 41.42445 19.71929 114 ft 51 kts 175°
2026-04-21 07:15 41.41838 19.72008 119 ft 121 kts 174°
2026-04-21 07:16 41.40813 19.72139 223 ft 165 kts 175°
2026-04-21 07:16 41.39684 19.72272 893 ft 163 kts 173°
2026-04-21 07:16 41.38570 19.72425 1547 ft 164 kts 173°
2026-04-21 07:16 41.37436 19.72585 2060 ft 168 kts 173°
2026-04-21 07:17 41.36228 19.72756 2365 ft 182 kts 173°
2026-04-21 07:17 41.34914 19.72937 2671 ft 198 kts 174°
2026-04-21 07:17 41.33483 19.73130 2950 ft 216 kts 175°
2026-04-21 07:17 41.31891 19.73339 3213 ft 238 kts 176°
2026-04-21 07:18 41.30203 19.73560 3630 ft 254 kts 176°
2026-04-21 07:18 41.28405 19.73796 4249 ft 262 kts 176°
2026-04-21 07:18 41.26588 19.74007 5005 ft 264 kts 182°
2026-04-21 07:18 41.24845 19.73483 5700 ft 261 kts 211°
2026-04-21 07:19 41.23505 19.71908 6438 ft 259 kts 237°
2026-04-21 07:19 41.22714 19.69763 7194 ft 259 kts 248°
2026-04-21 07:19 41.22003 19.67574 7897 ft 263 kts 248°
2026-04-21 07:19 41.21279 19.65375 8593 ft 265 kts 248°
2026-04-21 07:20 41.20533 19.63126 9299 ft 267 kts 249°
2026-04-21 07:20 41.19788 19.60887 9965 ft 270 kts 249°
2026-04-21 07:20 41.19025 19.58595 10495 ft 277 kts 249°
2026-04-21 07:20 41.18224 19.56190 10778 ft 293 kts 249°
2026-04-21 07:21 41.17377 19.53656 11066 ft 308 kts 249°
2026-04-21 07:21 41.16495 19.51021 11435 ft 320 kts 249°
2026-04-21 07:21 41.15584 19.48312 12010 ft 324 kts 249°
2026-04-21 07:21 41.14663 19.45582 12665 ft 326 kts 249°
2026-04-21 07:22 41.13732 19.42822 13266 ft 329 kts 249°
2026-04-21 07:22 41.12807 19.40073 13852 ft 331 kts 249°
2026-04-21 07:22 41.11868 19.37287 14426 ft 334 kts 249°
2026-04-21 07:22 41.10917 19.34472 14980 ft 338 kts 249°
2026-04-21 07:23 41.09956 19.31627 15550 ft 340 kts 249°
2026-04-21 07:23 41.08982 19.28749 16095 ft 344 kts 249°
2026-04-21 07:23 41.08007 19.25872 16634 ft 346 kts 249°
2026-04-21 07:23 41.07014 19.22948 17176 ft 349 kts 248°
2026-04-21 07:24 41.05868 19.20123 17685 ft 355 kts 242°
2026-04-21 07:24 41.04440 19.17429 18201 ft 360 kts 236°
2026-04-21 07:24 41.02785 19.14899 18721 ft 364 kts 232°
2026-04-21 07:24 41.01089 19.12433 19204 ft 367 kts 232°
2026-04-21 07:25 40.99362 19.09940 19701 ft 369 kts 232°
2026-04-21 07:25 40.97633 19.07443 20199 ft 371 kts 232°
2026-04-21 07:25 40.95878 19.04902 20686 ft 373 kts 232°
2026-04-21 07:25 40.94134 19.02379 21137 ft 375 kts 232°
2026-04-21 07:26 40.92373 18.99819 21581 ft 377 kts 233°
2026-04-21 07:26 40.90979 18.96954 21971 ft 371 kts 251°
2026-04-21 07:26 40.90387 18.93707 22405 ft 367 kts 268°
2026-04-21 07:26 40.90588 18.90374 22833 ft 366 kts 284°
2026-04-21 07:27 40.91420 18.87214 23281 ft 366 kts 290°
2026-04-21 07:27 40.92339 18.84038 23701 ft 368 kts 290°
2026-04-21 07:27 40.93246 18.80899 24102 ft 370 kts 290°
2026-04-21 07:27 40.94161 18.77715 24489 ft 372 kts 290°
2026-04-21 07:28 40.95073 18.74541 24850 ft 374 kts 290°
2026-04-21 07:28 40.96005 18.71286 25196 ft 377 kts 290°
2026-04-21 07:28 40.96925 18.68070 25542 ft 379 kts 290°
2026-04-21 07:28 40.97851 18.64826 25893 ft 380 kts 290°
2026-04-21 07:29 40.98791 18.61528 26238 ft 382 kts 290°
2026-04-21 07:29 40.99725 18.58247 26569 ft 384 kts 290°
2026-04-21 07:29 41.00663 18.54947 26899 ft 385 kts 290°
2026-04-21 07:29 41.01593 18.51672 27214 ft 387 kts 290°
2026-04-21 07:30 41.02548 18.48308 27526 ft 388 kts 290°
2026-04-21 07:30 41.03492 18.44976 27824 ft 390 kts 290°
2026-04-21 07:30 41.04444 18.41607 28126 ft 392 kts 290°
2026-04-21 07:30 41.05399 18.38227 28413 ft 393 kts 290°
2026-04-21 07:31 41.06356 18.34833 28697 ft 394 kts 290°
2026-04-21 07:31 41.07306 18.31458 28993 ft 396 kts 290°
2026-04-21 07:31 41.08266 18.28048 29276 ft 397 kts 290°
2026-04-21 07:31 41.09226 18.24632 29542 ft 399 kts 290°
2026-04-21 07:32 41.10197 18.21174 29790 ft 400 kts 290°
2026-04-21 07:32 41.11160 18.17735 30027 ft 402 kts 290°
2026-04-21 07:32 41.12133 18.14262 30279 ft 403 kts 290°
2026-04-21 07:32 41.13100 18.10796 30597 ft 403 kts 290°
2026-04-21 07:33 41.14078 18.07294 30935 ft 401 kts 290°
2026-04-21 07:33 41.15028 18.03887 31266 ft 400 kts 290°
2026-04-21 07:33 41.15990 18.00428 31574 ft 399 kts 290°
2026-04-21 07:33 41.16941 17.97004 31874 ft 398 kts 290°
2026-04-21 07:34 41.17901 17.93547 32169 ft 397 kts 290°
2026-04-21 07:34 41.18843 17.90149 32465 ft 395 kts 290°
2026-04-21 07:34 41.19785 17.86744 32740 ft 395 kts 290°
2026-04-21 07:34 41.20735 17.83306 33022 ft 394 kts 290°
2026-04-21 07:35 41.21665 17.79938 33289 ft 393 kts 290°
2026-04-21 07:35 41.22600 17.76546 33548 ft 392 kts 290°
2026-04-21 07:35 41.23535 17.73150 33810 ft 391 kts 290°
2026-04-21 07:35 41.24469 17.69757 34056 ft 390 kts 290°
2026-04-21 07:36 41.25393 17.66388 34277 ft 390 kts 290°
2026-04-21 07:36 41.26316 17.63021 34481 ft 390 kts 290°
2026-04-21 07:36 41.27235 17.59663 34642 ft 390 kts 290°
2026-04-21 07:36 41.28157 17.56295 34792 ft 391 kts 290°
2026-04-21 07:37 41.29090 17.52883 34942 ft 392 kts 290°
2026-04-21 07:37 41.30019 17.49476 35074 ft 393 kts 290°
2026-04-21 07:37 41.30950 17.46061 35204 ft 394 kts 290°
2026-04-21 07:37 41.31876 17.42654 35333 ft 394 kts 290°
2026-04-21 07:38 41.32809 17.39219 35466 ft 395 kts 290°
2026-04-21 07:38 41.33739 17.35788 35586 ft 396 kts 290°
2026-04-21 07:38 41.34661 17.32379 35703 ft 397 kts 289°
2026-04-21 07:38 41.35599 17.28912 35841 ft 397 kts 289°
2026-04-21 07:39 41.37463 17.22005 35915 ft 398 kts 289°
2026-04-21 07:39 41.39321 17.15106 35925 ft 397 kts 289°
2026-04-21 07:40 41.41175 17.08203 35925 ft 398 kts 289°
2026-04-21 07:40 41.43025 17.01292 35923 ft 397 kts 289°
2026-04-21 07:41 41.44867 16.94393 35921 ft 397 kts 289°
2026-04-21 07:41 41.46720 16.87433 35917 ft 397 kts 289°
2026-04-21 07:42 41.48555 16.80523 35917 ft 398 kts 289°
2026-04-21 07:42 41.50410 16.73637 35915 ft 398 kts 291°
2026-04-21 07:43 41.52704 16.66937 35914 ft 397 kts 297°
2026-04-21 07:43 41.55539 16.60595 35911 ft 398 kts 302°
2026-04-21 07:44 41.58868 16.54719 35917 ft 399 kts 308°
2026-04-21 07:44 41.62489 16.49148 35916 ft 399 kts 309°
2026-04-21 07:45 41.66153 16.43549 35919 ft 399 kts 309°
2026-04-21 07:45 41.69800 16.37967 35920 ft 399 kts 309°
2026-04-21 07:46 41.73448 16.32375 35920 ft 399 kts 308°
2026-04-21 07:46 41.77090 16.26782 35920 ft 399 kts 308°
2026-04-21 07:47 41.80704 16.21222 35924 ft 398 kts 308°
2026-04-21 07:47 41.84352 16.15599 35924 ft 398 kts 308°
2026-04-21 07:48 41.87964 16.10022 35920 ft 398 kts 308°
2026-04-21 07:48 41.91565 16.04454 35918 ft 398 kts 309°
2026-04-21 07:49 41.95287 15.98937 35915 ft 398 kts 309°
2026-04-21 07:49 41.98993 15.93480 35917 ft 397 kts 309°
2026-04-21 07:50 42.02705 15.87993 35916 ft 396 kts 310°
2026-04-21 07:50 42.06398 15.82519 35915 ft 397 kts 310°
2026-04-21 07:51 42.10095 15.77027 35916 ft 397 kts 309°
2026-04-21 07:51 42.13808 15.71497 35919 ft 398 kts 310°
2026-04-21 07:52 42.17489 15.66006 35917 ft 397 kts 310°
2026-04-21 07:52 42.21196 15.60467 35917 ft 397 kts 310°
2026-04-21 07:53 42.24881 15.54952 35920 ft 398 kts 309°
2026-04-21 07:53 42.28566 15.49422 35917 ft 398 kts 309°
2026-04-21 07:54 42.32252 15.43869 35921 ft 398 kts 309°
2026-04-21 07:54 42.35943 15.38281 35925 ft 398 kts 309°
2026-04-21 07:55 42.39624 15.32702 35925 ft 398 kts 309°
2026-04-21 07:55 42.43298 15.27125 35932 ft 398 kts 309°
2026-04-21 07:56 42.45133 15.24334 35828 ft 399 kts 309°
2026-04-21 07:56 42.46971 15.21538 35599 ft 397 kts 309°
2026-04-21 07:56 42.48795 15.18762 35379 ft 395 kts 309°
2026-04-21 07:56 42.50613 15.15998 35154 ft 393 kts 309°
2026-04-21 07:57 42.52410 15.13267 34930 ft 390 kts 309°
2026-04-21 07:57 42.54226 15.10502 34703 ft 389 kts 309°
2026-04-21 07:57 42.56016 15.07775 34464 ft 388 kts 309°
2026-04-21 07:57 42.57807 15.05047 34160 ft 389 kts 309°
2026-04-21 07:58 42.59595 15.02319 33729 ft 390 kts 309°
2026-04-21 07:58 42.61383 14.99587 33176 ft 391 kts 309°
2026-04-21 07:58 42.63180 14.96839 32559 ft 391 kts 309°
2026-04-21 07:58 42.64977 14.94090 31911 ft 392 kts 309°
2026-04-21 07:59 42.66802 14.91293 31198 ft 393 kts 309°
2026-04-21 07:59 42.68609 14.88522 30482 ft 395 kts 309°
2026-04-21 07:59 42.70408 14.85758 29744 ft 396 kts 309°
2026-04-21 07:59 42.72213 14.82985 29244 ft 391 kts 309°
2026-04-21 08:00 42.73997 14.80240 28771 ft 386 kts 309°
2026-04-21 08:00 42.75758 14.77530 28304 ft 381 kts 309°
2026-04-21 08:00 42.77507 14.74835 27822 ft 377 kts 309°
2026-04-21 08:00 42.79225 14.72184 27355 ft 373 kts 309°
2026-04-21 08:01 42.80921 14.69567 26883 ft 369 kts 309°
2026-04-21 08:01 42.82616 14.66948 26413 ft 365 kts 309°
2026-04-21 08:01 42.84280 14.64375 25947 ft 361 kts 309°
2026-04-21 08:02 42.87559 14.59300 24994 ft 355 kts 309°
2026-04-21 08:02 42.89187 14.56776 24519 ft 352 kts 309°
2026-04-21 08:02 42.90778 14.54307 24059 ft 350 kts 309°
2026-04-21 08:02 42.92377 14.51822 23596 ft 346 kts 309°
2026-04-21 08:03 42.93958 14.49365 23166 ft 343 kts 310°
2026-04-21 08:03 42.95521 14.46933 22736 ft 340 kts 309°
2026-04-21 08:03 42.97070 14.44522 22306 ft 338 kts 309°
2026-04-21 08:03 42.98604 14.42132 21875 ft 335 kts 309°
2026-04-21 08:04 43.00134 14.39747 21420 ft 334 kts 309°
2026-04-21 08:04 43.01648 14.37384 20989 ft 332 kts 309°
2026-04-21 08:04 43.03177 14.34996 20539 ft 331 kts 309°
2026-04-21 08:04 43.04681 14.32645 20109 ft 330 kts 309°
2026-04-21 08:05 43.06197 14.30274 19673 ft 329 kts 309°
2026-04-21 08:05 43.07679 14.27951 19240 ft 328 kts 309°
2026-04-21 08:05 43.09185 14.25592 18806 ft 327 kts 309°
2026-04-21 08:05 43.10666 14.23270 18380 ft 327 kts 309°
2026-04-21 08:06 43.12161 14.20926 17939 ft 327 kts 309°
2026-04-21 08:06 43.13651 14.18590 17483 ft 327 kts 309°
2026-04-21 08:06 43.15153 14.16230 17036 ft 327 kts 309°
2026-04-21 08:06 43.16633 14.13901 16587 ft 327 kts 309°
2026-04-21 08:07 43.18119 14.11566 16135 ft 326 kts 309°
2026-04-21 08:07 43.19617 14.09211 15690 ft 326 kts 309°
2026-04-21 08:07 43.21090 14.06893 15244 ft 326 kts 309°
2026-04-21 08:07 43.22580 14.04547 14798 ft 325 kts 309°
2026-04-21 08:08 43.24053 14.02228 14354 ft 325 kts 309°
2026-04-21 08:08 43.25534 13.99891 13901 ft 324 kts 309°
2026-04-21 08:08 43.27005 13.97569 13452 ft 324 kts 310°
2026-04-21 08:08 43.28481 13.95241 13004 ft 323 kts 309°
2026-04-21 08:09 43.29953 13.92915 12548 ft 323 kts 310°
2026-04-21 08:09 43.31417 13.90597 12093 ft 322 kts 310°
2026-04-21 08:09 43.32883 13.88275 11630 ft 322 kts 310°
2026-04-21 08:09 43.34330 13.85982 11175 ft 321 kts 310°
2026-04-21 08:10 43.35794 13.83656 10715 ft 320 kts 310°
2026-04-21 08:10 43.37241 13.81355 10440 ft 313 kts 310°
2026-04-21 08:10 43.38644 13.79126 10303 ft 302 kts 310°
2026-04-21 08:10 43.39986 13.76990 10152 ft 292 kts 310°
2026-04-21 08:11 43.41435 13.75093 10001 ft 284 kts 322°
2026-04-21 08:11 43.43122 13.73714 9699 ft 282 kts 332°
2026-04-21 08:11 43.44915 13.72565 9292 ft 283 kts 333°
2026-04-21 08:11 43.46706 13.71457 8902 ft 284 kts 334°
2026-04-21 08:12 43.48515 13.70337 8525 ft 283 kts 334°
2026-04-21 08:12 43.50298 13.69226 8161 ft 282 kts 334°
2026-04-21 08:12 43.52083 13.68110 7884 ft 278 kts 334°
2026-04-21 08:12 43.53825 13.67016 7507 ft 278 kts 334°
2026-04-21 08:13 43.55584 13.65908 7157 ft 276 kts 334°
2026-04-21 08:13 43.57299 13.64826 6761 ft 269 kts 334°
2026-04-21 08:13 43.58969 13.63773 6389 ft 261 kts 334°
2026-04-21 08:13 43.60588 13.62752 6055 ft 252 kts 334°
2026-04-21 08:14 43.62175 13.61748 5728 ft 248 kts 334°
2026-04-21 08:14 43.63734 13.60761 5417 ft 248 kts 334°
2026-04-21 08:14 43.65347 13.59879 5075 ft 249 kts 349°
2026-04-21 08:14 43.67036 13.60037 4784 ft 249 kts 19°
2026-04-21 08:15 43.68496 13.61308 4500 ft 251 kts 44°
2026-04-21 08:15 43.69682 13.63076 4284 ft 250 kts 47°
2026-04-21 08:15 43.70838 13.64848 4148 ft 250 kts 47°
2026-04-21 08:15 43.72135 13.66419 4006 ft 248 kts 25°
2026-04-21 08:16 43.73338 13.66805 3975 ft 244 kts 356°
2026-04-21 08:35 43.74683 13.66238 3978 ft 242 kts 324°
2026-04-21 08:35 43.75878 13.64636 3984 ft 235 kts 309°
2026-04-21 08:35 43.76898 13.62900 3971 ft 232 kts 309°
2026-04-21 08:36 43.77811 13.61055 3938 ft 232 kts 290°
2026-04-21 08:36 43.77885 13.58891 3651 ft 231 kts 251°
2026-04-21 08:36 43.77001 13.57067 3389 ft 230 kts 226°
2026-04-21 08:36 43.75848 13.55551 3162 ft 229 kts 223°
2026-04-21 08:37 43.74667 13.54056 2927 ft 229 kts 223°
2026-04-21 08:37 43.73503 13.52525 2707 ft 230 kts 224°
2026-04-21 08:37 43.72368 13.50982 2640 ft 232 kts 225°
2026-04-21 08:37 43.71215 13.49392 2426 ft 234 kts 225°
2026-04-21 08:38 43.70062 13.47801 2114 ft 236 kts 225°
2026-04-21 08:38 43.68902 13.46205 1803 ft 239 kts 225°
2026-04-21 08:38 43.67749 13.44622 1571 ft 221 kts 224°
2026-04-21 08:38 43.66703 13.43184 1237 ft 205 kts 224°
2026-04-21 08:39 43.65742 13.41865 986 ft 187 kts 224°
2026-04-21 08:39 43.64853 13.40646 715 ft 173 kts 224°
2026-04-21 08:39 43.64035 13.39524 481 ft 159 kts 224°
2026-04-21 08:39 43.63289 13.38500 268 ft 145 kts 224°
2026-04-21 08:40 43.62583 13.37531 85 ft 142 kts 224°
2026-04-21 08:40 43.61912 13.36611 33 ft 121 kts 225°
2026-04-21 08:40 43.61434 13.35955 40 ft 72 kts 225°
2026-04-21 08:40 43.61179 13.35604 43 ft 24 kts 220°
2026-04-21 08:41 43.61030 13.35560 44 ft 20 kts 181°
2026-04-21 08:41 43.60910 13.35547 45 ft 16 kts 207°
2026-04-21 08:41 43.60867 13.35514 45 ft 0 kts 160°
2026-04-21 08:41 43.60858 13.35519 45 ft 2 kts 160°
2026-04-21 08:42 43.60842 13.35517 46 ft 3 kts 199°
2026-04-21 08:42 43.60800 13.35501 46 ft 5 kts 166°
2026-04-21 08:42 43.60787 13.35504 46 ft 1 kts 168°
2026-04-21 08:42 43.60784 13.35505 46 ft 0 kts 167°